[[{"header":{"parameterUnit":"m.s-1","parameterCategory":1,"la1":30.2991,"la2":30.254,"lo1":-89.0895,"lo2":-89.0444,"dx":0.0017,"dy":0.0017,"nx":28,"ny":28,"refTime":"2022-12-24T09:00:00:Z","depth":0,"parameterNumber":2,"parameterNumberName":"U-component_of_WINDS"},"data":[0,0,0,0,0,0,0,0,0,0,0,0,0,0,0,0,0,0,0,0,0,0,0,0,0,0,0,0,0,0,0,0,0,0,0,0,0,0,0,0,0,0,0,0,0,0,0,0,0,0,0,0,0,0,0,0,0,0,1.216,1.216,0,1.216,1.216,1.216,1.2144,1.2144,1.2143,1.2143,1.2142,1.2143,1.2143,0,0,0,0,0,0,0,0,0,0,0,0,0,1.2146,1.2146,1.216,1.216,1.216,1.216,1.216,1.216,1.2144,1.2144,1.2143,1.2143,1.2142,1.2143,1.2143,0,0,0,0,0,0,0,0,0,0,0,0,0,1.2149,1.2146,1.216,1.2152,1.2151,1.216,1.216,1.216,1.2144,1.2143,1.2143,1.2142,1.2142,1.2143,1.2143,1.2159,0,0,1.2145,1.2145,0,0,0,0,0,0,0,0,1.2149,1.215,1.2153,1.2152,1.2152,1.2151,1.2155,1.216,1.2144,1.2147,1.2143,1.2142,1.2146,1.2146,1.2147,1.2159,1.2159,1.2145,1.2145,1.2145,1.2146,0,0,0,0,0,0,0,1.2149,1.215,1.216,1.2153,1.2152,1.2148,1.2148,1.2156,1.215,1.2147,1.2145,1.2146,1.2145,1.2147,1.2147,1.2159,1.2145,1.2145,1.2146,1.2146,1.2186,1.2187,0,0,0,0,0,0,1.215,1.215,1.216,1.216,1.2149,1.2149,1.2149,1.2152,1.215,1.2149,1.2146,1.2145,1.2146,1.2147,1.2147,1.2167,1.2145,1.2146,1.2146,1.2185,1.2186,1.2187,0,0,0,0,0,0,1.215,1.2151,1.216,1.2155,1.2155,1.215,1.2154,1.2152,1.2154,1.2149,1.2148,1.2149,1.2146,1.2146,1.2157,1.2167,1.2146,1.2147,1.2184,1.2186,1.2187,1.2206,0,0,0,0,0,0,1.2149,1.2151,1.2157,1.2155,1.2156,1.2169,1.2154,1.2153,1.2155,1.2153,1.2152,1.2151,1.2145,1.2156,1.2157,1.2167,1.2147,1.2184,1.2185,1.2186,1.2204,1.2207,1.221,0,0,0,0,0,1.2149,1.2162,1.2157,1.2159,1.2163,1.217,1.2171,1.2164,1.2156,1.2162,1.2159,1.2151,1.2165,1.2157,1.2159,1.2169,1.2183,1.2185,1.2186,1.2203,1.2207,1.221,0,0,0,0,0,0,1.2165,1.2161,1.2156,1.2169,1.217,1.2167,1.2175,1.2168,1.2171,1.2169,1.2161,1.2161,1.2173,1.2172,1.2163,1.2185,1.2173,1.2175,1.2185,1.2189,1.2192,1.2192,1.2148,0,0,0,0,0,1.217,1.2176,1.2173,1.2184,1.2185,1.218,1.2183,1.2178,1.2178,1.2179,1.2176,1.2177,1.2182,1.2185,1.2189,1.2204,1.2204,1.2212,1.2215,1.2217,1.2219,1.2228,1.2231,1.2192,1.2192,1.2192,0,0,1.218,1.2179,1.2183,1.2187,1.2188,1.2194,1.218,1.2187,1.2192,1.2179,1.2189,1.2188,1.2189,1.2202,1.2207,1.2201,1.223,1.2219,1.2221,1.2222,1.223,1.2233,1.2237,1.2193,1.2193,1.2193,0,0,1.2203,1.2202,1.2212,1.2213,1.2214,1.221,1.2213,1.2212,1.221,1.222,1.2211,1.2217,1.2225,1.2226,1.2228,1.2252,1.2245,1.2254,1.2269,1.2277,1.228,1.2283,1.2292,1.2296,1.2255,1.2255,1.2255,0,1.2215,1.2225,1.2218,1.2226,1.2229,1.2218,1.2229,1.223,1.2232,1.2234,1.2227,1.2238,1.2237,1.2251,1.2257,1.2258,1.2261,1.2254,1.228,1.2283,1.2286,1.2294,1.2298,1.2257,1.2256,1.2256,1.2256,0,1.2241,1.2248,1.2256,1.2259,1.2262,1.2271,1.2266,1.227,1.2266,1.2263,1.2274,1.2273,1.2278,1.228,1.2275,1.2294,1.229,1.2282,1.2269,1.229,1.2299,1.2302,1.2258,1.2258,1.2257,1.2257,0,0,1.2272,1.2272,1.2275,1.2277,1.2278,1.2283,1.2292,1.2297,1.2301,1.2303,1.231,1.2318,1.2311,1.2313,1.2308,1.2316,1.2336,1.2307,1.2307,1.2313,1.2357,1.2363,1.2367,1.2331,1.2332,1.2332,1.2357,0,1.2294,1.231,1.2305,1.2321,1.2328,1.2318,1.2326,1.2328,1.2326,1.2332,1.233,1.2336,1.2326,1.2327,1.2334,1.2332,1.2345,1.233,1.2339,1.2339,1.2339,1.2371,1.2377,1.24,1.236,1.2361,1.2361,0,1.2322,1.2326,1.2343,1.2343,1.2346,1.2353,1.2358,1.2363,1.2365,1.2363,1.2366,1.236,1.2369,1.2357,1.237,1.2361,1.2364,1.2364,1.2364,1.2365,1.2351,1.2373,1.2408,1.2411,1.2366,1.2365,1.2365,0,1.2344,1.2353,1.2365,1.2366,1.2367,1.2373,1.2373,1.2374,1.2378,1.2382,1.2384,1.2389,1.2392,1.2396,1.2391,1.2383,1.2405,1.2393,1.2404,1.2405,1.2409,1.2409,1.2446,1.2411,1.2411,1.2411,1.2411,0,1.2369,1.238,1.2375,1.2382,1.2394,1.2388,1.24,1.24,1.2401,1.2409,1.2401,1.2407,1.2401,1.2408,1.2404,1.2416,1.2417,1.2416,1.2415,1.2417,1.2417,1.2419,1.2417,1.2412,1.2412,1.2412,1.2412,0,1.2395,1.2392,1.2404,1.2405,1.2405,1.2414,1.2414,1.2421,1.2419,1.2428,1.243,1.2427,1.2435,1.2431,1.2438,1.2436,1.2451,1.2448,1.2451,1.245,1.2462,1.2461,1.2501,1.2506,1.2468,1.2469,1.2469,0,1.2412,1.242,1.2421,1.2426,1.2427,1.2434,1.2438,1.2433,1.2437,1.2441,1.2447,1.2454,1.2459,1.2471,1.247,1.2475,1.2472,1.2486,1.2473,1.2475,1.2473,1.2473,1.2474,1.2489,1.2489,1.2489,1.249,0,1.2441,1.2439,1.2445,1.2451,1.2456,1.246,1.2464,1.2468,1.2463,1.2468,1.2476,1.248,1.2488,1.2495,1.2501,1.2501,1.2495,1.2494,1.2497,1.2499,1.25,1.25,1.2458,1.2493,1.2492,1.2492,1.2492,1.2492,1.2463,1.247,1.2473,1.248,1.2482,1.2486,1.2493,1.2492,1.2499,1.2505,1.2502,1.2511,1.2513,1.252,1.2522,1.2529,1.2523,1.2528,1.2529,1.253,1.2532,1.2499,1.253,1.253,1.253,1.2529,1.2529,0,1.2493,1.2494,1.2501,1.2506,1.2512,1.2506,1.251,1.2515,1.2523,1.2526,1.2532,1.2541,1.2548,1.2548,1.2555,1.256,1.2558,1.2562,1.2562,1.2562,1.2536,1.2533,1.2564,1.2564,1.2564,1.2564,1.2564,1.2564,1.2509,1.2521,1.252,1.2533,1.2535,1.2544,1.2547,1.255,1.2553,1.2564,1.257,1.257,1.2572,1.2578,1.2585,1.2584,1.2587,1.2593,1.2592,1.2567,1.2564,1.2561,1.2558,1.2594,1.2594,1.2617,1.2618,1.2618]},{"header":{"parameterUnit":"m.s-1","parameterCategory":1,"la1":30.2991,"la2":30.254,"lo1":-89.0895,"lo2":-89.0444,"dx":0.0017,"dy":0.0017,"nx":28,"ny":28,"refTime":"2022-12-24T09:00:00:Z","depth":0,"parameterNumber":3,"parameterNumberName":"V-component_of_WINDS"},"data":[0,0,0,0,0,0,0,0,0,0,0,0,0,0,0,0,0,0,0,0,0,0,0,0,0,0,0,0,0,0,0,0,0,0,0,0,0,0,0,0,0,0,0,0,0,0,0,0,0,0,0,0,0,0,0,0,0,0,-3.8708,-3.8708,0,-3.8769,-3.877,-3.8771,-3.8779,-3.8778,-3.8777,-3.8777,-3.8836,-3.8838,-3.884,0,0,0,0,0,0,0,0,0,0,0,0,0,-3.8593,-3.8595,-3.8707,-3.8708,-3.8709,-3.8769,-3.877,-3.8771,-3.8779,-3.8778,-3.8777,-3.8777,-3.8835,-3.8837,-3.884,0,0,0,0,0,0,0,0,0,0,0,0,0,-3.8647,-3.8596,-3.8707,-3.872,-3.8722,-3.8769,-3.877,-3.8771,-3.8779,-3.8778,-3.8777,-3.8776,-3.8834,-3.8837,-3.884,-3.8877,0,0,-3.885,-3.8851,0,0,0,0,0,0,0,0,-3.8644,-3.8652,-3.8718,-3.8719,-3.8722,-3.8765,-3.8751,-3.8807,-3.8779,-3.8757,-3.8777,-3.8776,-3.8813,-3.8818,-3.8831,-3.888,-3.8883,-3.885,-3.8852,-3.8854,-3.8854,0,0,0,0,0,0,0,-3.8641,-3.8649,-3.8732,-3.8719,-3.8721,-3.8722,-3.8729,-3.8762,-3.8789,-3.8759,-3.876,-3.8767,-3.8814,-3.8828,-3.8832,-3.8883,-3.885,-3.8853,-3.8855,-3.8856,-3.8967,-3.8968,0,0,0,0,0,0,-3.8635,-3.8646,-3.873,-3.8734,-3.868,-3.8725,-3.8732,-3.8752,-3.8789,-3.8793,-3.8768,-3.8767,-3.8823,-3.8829,-3.8834,-3.8881,-3.8854,-3.8856,-3.8858,-3.8966,-3.8967,-3.8968,0,0,0,0,0,0,-3.8632,-3.8642,-3.8727,-3.869,-3.8701,-3.8728,-3.875,-3.8754,-3.8768,-3.8795,-3.88,-3.8778,-3.8822,-3.883,-3.8867,-3.8883,-3.8858,-3.8861,-3.8965,-3.8966,-3.8968,-3.8973,0,0,0,0,0,0,-3.8629,-3.8641,-3.8656,-3.869,-3.8703,-3.876,-3.8751,-3.8756,-3.8774,-3.8774,-3.8806,-3.881,-3.8822,-3.8862,-3.887,-3.8887,-3.8863,-3.8963,-3.8965,-3.8967,-3.8972,-3.8975,-3.8978,0,0,0,0,0,-3.8625,-3.8654,-3.8657,-3.8667,-3.8722,-3.8761,-3.8768,-3.8783,-3.8775,-3.879,-3.8808,-3.8809,-3.888,-3.8866,-3.8875,-3.8893,-3.8962,-3.8965,-3.8967,-3.8971,-3.8974,-3.8978,0,0,0,0,0,0,-3.8619,-3.8659,-3.8662,-3.8704,-3.8729,-3.8762,-3.8781,-3.8786,-3.8813,-3.8811,-3.8827,-3.8834,-3.8871,-3.8885,-3.8869,-3.8931,-3.892,-3.8925,-3.892,-3.8924,-3.8927,-3.8922,-3.8866,0,0,0,0,0,-3.8624,-3.8653,-3.8685,-3.8718,-3.8731,-3.8754,-3.8771,-3.8781,-3.8807,-3.8817,-3.8838,-3.8862,-3.889,-3.8908,-3.8935,-3.8974,-3.8981,-3.8991,-3.8994,-3.8996,-3.8999,-3.9022,-3.9027,-3.8976,-3.8976,-3.8976,0,0,-3.8631,-3.8656,-3.8673,-3.8718,-3.8739,-3.8768,-3.8763,-3.8793,-3.8815,-3.8821,-3.8858,-3.8874,-3.8902,-3.8941,-3.8959,-3.8955,-3.9015,-3.8999,-3.9001,-3.9003,-3.9025,-3.903,-3.9034,-3.8978,-3.8977,-3.8977,0,0,-3.866,-3.8682,-3.8713,-3.8735,-3.8767,-3.8782,-3.879,-3.8823,-3.8834,-3.8872,-3.8877,-3.8903,-3.895,-3.897,-3.8987,-3.9025,-3.9028,-3.9034,-3.9048,-3.907,-3.9074,-3.9078,-3.9092,-3.9097,-3.9037,-3.9037,-3.9037,0,-3.8665,-3.8711,-3.8728,-3.8759,-3.8779,-3.8788,-3.8819,-3.8838,-3.8877,-3.889,-3.8884,-3.8945,-3.8965,-3.9009,-3.9019,-3.9032,-3.904,-3.903,-3.9073,-3.9077,-3.908,-3.9094,-3.9099,-3.9038,-3.9037,-3.9037,-3.9037,0,-3.8716,-3.8747,-3.8768,-3.8808,-3.8829,-3.886,-3.8881,-3.8901,-3.8909,-3.8924,-3.8963,-3.8987,-3.902,-3.9031,-3.9038,-3.9076,-3.9072,-3.907,-3.9059,-3.9085,-3.9098,-3.9104,-3.9038,-3.9038,-3.9038,-3.9038,0,0,-3.8742,-3.8792,-3.8799,-3.8818,-3.8855,-3.8879,-3.891,-3.8944,-3.8961,-3.8987,-3.9014,-3.9055,-3.9053,-3.9072,-3.9081,-3.9101,-3.913,-3.9096,-3.9097,-3.9102,-3.9175,-3.9177,-3.9182,-3.9132,-3.9133,-3.9134,-3.9172,0,-3.8775,-3.8833,-3.885,-3.8898,-3.8928,-3.8938,-3.8965,-3.899,-3.9006,-3.9032,-3.9049,-3.9078,-3.9073,-3.9085,-3.9105,-3.9123,-3.9145,-3.912,-3.9156,-3.9157,-3.9149,-3.9189,-3.9191,-3.9226,-3.9178,-3.9179,-3.9179,0,-3.8822,-3.8852,-3.8904,-3.8939,-3.8951,-3.8976,-3.9009,-3.9034,-3.9063,-3.9073,-3.9095,-3.9103,-3.9135,-3.9124,-3.9168,-3.9151,-3.9167,-3.9178,-3.918,-3.9183,-3.917,-3.9194,-3.9237,-3.9243,-3.9187,-3.9187,-3.9186,0,-3.8837,-3.889,-3.8928,-3.8943,-3.8985,-3.9002,-3.9019,-3.9047,-3.9067,-3.9095,-3.9108,-3.9139,-3.9156,-3.9179,-3.9196,-3.9186,-3.9239,-3.9228,-3.9248,-3.9247,-3.9258,-3.9257,-3.9305,-3.9268,-3.9268,-3.9268,-3.9268,0,-3.8872,-3.8904,-3.8935,-3.8959,-3.8994,-3.9013,-3.9047,-3.9065,-3.909,-3.9117,-3.9126,-3.9151,-3.9171,-3.9197,-3.921,-3.9245,-3.9253,-3.9261,-3.9264,-3.9261,-3.926,-3.9271,-3.9269,-3.927,-3.9269,-3.9269,-3.9269,0,-3.8894,-3.8917,-3.8959,-3.8996,-3.9006,-3.903,-3.9061,-3.9083,-3.91,-3.9134,-3.9142,-3.9168,-3.92,-3.9219,-3.9259,-3.9268,-3.9307,-3.9309,-3.9298,-3.9299,-3.9318,-3.9316,-3.9374,-3.9383,-3.934,-3.9341,-3.9341,0,-3.8916,-3.894,-3.898,-3.9,-3.9018,-3.9049,-3.907,-3.909,-3.9111,-3.9146,-3.9165,-3.9198,-3.9226,-3.9277,-3.9298,-3.9329,-3.9331,-3.935,-3.9336,-3.9332,-3.9332,-3.9331,-3.9333,-3.9352,-3.9352,-3.9353,-3.9353,0,-3.8951,-3.8962,-3.8992,-3.9027,-3.9052,-3.908,-3.9108,-3.9122,-3.9147,-3.917,-3.9204,-3.9226,-3.9268,-3.9301,-3.9334,-3.9351,-3.9356,-3.9357,-3.9364,-3.936,-3.9353,-3.9357,-3.9304,-3.9356,-3.9355,-3.9355,-3.9355,-3.9355,-3.8974,-3.8997,-3.9029,-3.9063,-3.9086,-3.9112,-3.9136,-3.9157,-3.9186,-3.9223,-3.9233,-3.9269,-3.9298,-3.9343,-3.9361,-3.9388,-3.9385,-3.9394,-3.9396,-3.9398,-3.9399,-3.9349,-3.9394,-3.9394,-3.9394,-3.9394,-3.9394,0,-3.9011,-3.9032,-3.9064,-3.9103,-3.913,-3.9134,-3.9165,-3.9187,-3.9219,-3.9246,-3.9274,-3.9314,-3.9346,-3.9371,-3.9404,-3.9421,-3.9424,-3.9429,-3.9428,-3.9432,-3.94,-3.9391,-3.9426,-3.9426,-3.9426,-3.9426,-3.9426,-3.9426,-3.9033,-3.9072,-3.9087,-3.9138,-3.9159,-3.9196,-3.9213,-3.9237,-3.9259,-3.9304,-3.9331,-3.9348,-3.9374,-3.9409,-3.9439,-3.9445,-3.9457,-3.9461,-3.9468,-3.9437,-3.9434,-3.9431,-3.9423,-3.9464,-3.9464,-3.9498,-3.9498,-3.9499]}]]